YZ-2 R/B, 41840

Orbit data source: Space-Track

YZ-2 R/B, 41840 is space debris in GEO originally from a launch on Thu, 03 Nov 2016 UTC launched from the Wenchang Satellite Launch Center (WSC). Debris objects in space refer to the collection of defunct objects orbiting the Earth. Examples of debris include non-operational satellites, rocket bodies, and fragments generated from explosions, collisions, or faulty payload assembly.

Loading next visibility...
Identifier
41840, 2016-065C
Orbit
GEO
Country
Flag of CNCN / PRC
Related business
Manufacturer
CALT
Mission
Spacecraft
Bus & Motor
YZ-2, Unknown motor
Mass
~2,000 kg wet, ~2,000 kg dry
Launch date (UTC)
2016-11-03 (10 years ago)
Launch vehicle
Unknown
Launch site
Wenchang Satellite Launch Center (WSC)
Object type
Payload
Rocket body
Debris
Shape & HBR
Cyl, 2.8 m
Radar Cross Section
17.609 m², Large (>1 m²)

Expand to show TLE details & history
Last TLE update: 12 hours ago

TLE from 12 hours ago
0 YZ-2 R/B
1 41840U 16065C   26258.29295097 -.00000201  00000-0  00000-0 0  9995
2 41840   9.6073  65.5180 0461595 234.8382 120.8669  0.93474016 33696
Epoch: 2026-09-15T07:01Z
TLE epoch observation values (Epoch: 2026-09-15T07:01:50.963Z)
Latitude
-0°
Longitude
-34.10862°
Altitude
38,908.714 km
Speed
2.93 km/s
True Right ascension
04h 22m 27s
True Declination
0° 00' 00"
Sunlit
Object was in daylight at epoch
Visualization orbit readout
Latitude
Unknown
Longitude
Unknown
Altitude
Unknown
Speed
Unknown
Apparent Right ascension
Unknown
Apparent Declination
Unknown
Sunlit
N/A
Visualization observer readout
Local Sidereal Time
11:45:41
Azimuth
Unknown
Elevation
Unknown
Doppler factor
Unknown
Orbital elements
Apogee altitude
39,847.421 km
Perigee altitude
35,768.218 km
Semi-major axis
44,185.956 km
Eccentricity
0.04616
Inclination
9.6073°
RAAN
65.518°
Arg. of periapsis
234.8382°
True anomaly
125.27218°
Mean anomaly
120.8669°
Eccentric anomaly
123.08288°
Mean motion
0.23368 °/min
Orbital period
1,540.59 mins
BSTAR
0
Loading maneuver chart data...
Computing Atmospheric mass density...
Loading historical data...
Loading historical data...
Loading historical data...
Loading historical data...
Loading historical data...
Loading historical data...
Loading historical data...
Other satellites on launch #65 in the year 2016 (2016-11-03 UTC)

Documentation

Showing up to 5 results
|